Location: Newark
(49.3808°N, 3.1844°E)
Time: 01:05:49
(UTC+00:00)

Tiros 1 - All Passes

Search period start: 14 November 2019 00:00
Search period end: 24 November 2019 00:00
Orbit: 630 x 664 km, 48.4° (Epoch: 12 November)

Date Brightness Start Highest point End Pass type
(mag) Time Alt. Az. Time Alt. Az. Time Alt. Az.
14 Nov - 14:53:48 10° S 14:56:26 15° SE 14:59:06 10° ESE daylight
14 Nov - 16:33:24 10° SW 16:37:50 47° SSE 16:42:18 10° E visible
14 Nov - 18:15:11 10° W 18:19:50 80° S 18:24:33 10° E visible
14 Nov - 19:57:20 10° W 20:01:57 62° SSW 20:06:37 10° ESE visible
14 Nov - 21:39:50 10° W 21:43:39 25° SW 21:47:28 10° SSE night (unlit)
15 Nov - 15:18:09 10° SSW 15:22:03 27° SSE 15:25:58 10° E daylight
15 Nov - 16:59:11 10° WSW 17:03:47 66° SSE 17:08:25 10° E visible
15 Nov - 18:41:15 10° W 18:45:54 78° S 18:50:36 10° E visible
15 Nov - 20:23:27 10° W 20:27:52 43° SSW 20:32:19 10° SE visible
15 Nov - 22:06:58 10° WSW 22:09:13 13° SW 22:11:30 10° SSW night (unlit)
16 Nov - 14:04:04 10° S 14:06:28 14° SE 14:08:53 10° ESE daylight
16 Nov - 15:43:26 10° SW 15:47:50 44° SSE 15:52:16 10° E daylight
16 Nov - 17:25:10 10° W 17:29:49 79° S 17:34:30 10° E visible
16 Nov - 19:07:19 10° W 19:11:56 64° SSW 19:16:35 10° ESE visible
16 Nov - 20:49:46 10° W 20:53:39 26° SW 20:57:33 10° SSE visible
17 Nov - 14:28:15 10° SSW 14:32:04 26° SE 14:35:54 10° E daylight
17 Nov - 16:09:11 10° WSW 16:13:46 64° SSE 16:18:23 10° E daylight
17 Nov - 17:51:14 10° W 17:55:53 79° S 18:00:34 10° E visible
17 Nov - 19:33:25 10° W 19:37:52 44° SSW 19:42:20 10° SE visible
17 Nov - 21:16:45 10° WSW 21:19:16 14° SW 21:21:46 10° S night (unlit)
18 Nov - 13:14:23 10° SSE 13:16:30 13° SE 13:18:38 10° ESE daylight
18 Nov - 14:53:29 10° SW 14:57:50 42° SSE 15:02:13 10° E daylight
18 Nov - 16:35:09 10° W 16:39:47 78° S 16:44:28 10° E visible
18 Nov - 18:17:18 10° W 18:21:55 66° SSW 18:26:34 10° ESE visible
18 Nov - 19:59:42 10° W 20:03:39 27° SSW 20:07:38 10° SSE visible
19 Nov - 13:38:22 10° SSW 13:42:05 24° SE 13:45:49 10° E daylight
19 Nov - 15:19:11 10° WSW 15:23:45 62° SSE 15:28:20 10° E daylight
19 Nov - 17:01:13 10° W 17:05:51 80° S 17:10:32 10° E visible
19 Nov - 18:43:24 10° W 18:47:51 46° SSW 18:52:20 10° SE visible
19 Nov - 20:26:35 10° WSW 20:29:17 15° SW 20:32:00 10° S visible
20 Nov - 12:24:45 10° SSE 12:26:32 12° SE 12:28:20 10° ESE daylight
20 Nov - 14:03:31 10° SW 14:07:50 40° SSE 14:12:10 10° E daylight
20 Nov - 15:45:08 10° WSW 15:49:46 77° S 15:54:25 10° E daylight
20 Nov - 17:27:16 10° W 17:31:54 68° SSW 17:36:32 10° ESE visible
20 Nov - 19:09:39 10° W 19:13:40 29° SSW 19:17:42 10° SSE visible
21 Nov - 12:48:29 10° SSW 12:52:06 23° SE 12:55:44 10° E daylight
21 Nov - 14:29:11 10° WSW 14:33:44 60° SSE 14:38:18 10° E daylight
21 Nov - 16:11:11 10° W 16:15:50 80° S 16:20:29 10° E daylight
21 Nov - 17:53:22 10° W 17:57:51 48° SSW 18:02:20 10° SE visible
21 Nov - 19:36:25 10° W 19:39:18 16° SW 19:42:12 10° S visible
22 Nov - 11:35:14 10° SSE 11:36:35 11° SE 11:37:55 10° ESE daylight
22 Nov - 13:13:33 10° SW 13:17:50 38° SSE 13:22:07 10° E daylight
22 Nov - 14:55:07 10° WSW 14:59:45 76° S 15:04:23 10° E daylight
22 Nov - 16:37:15 10° W 16:41:52 70° SSW 16:46:30 10° ESE visible
22 Nov - 18:19:36 10° W 18:23:40 30° SSW 18:27:45 10° SSE visible
23 Nov - 11:58:37 10° SSW 12:02:07 22° SE 12:05:38 10° E daylight
23 Nov - 13:39:11 10° WSW 13:43:43 58° SSE 13:48:16 10° E daylight
23 Nov - 15:21:10 10° W 15:25:48 80° S 15:30:27 10° E daylight
23 Nov - 17:03:21 10° W 17:07:50 50° SSW 17:12:20 10° SE visible
23 Nov - 18:46:17 10° W 18:49:20 17° SW 18:52:22 10° S visible
